Showing default

MALLIGYONG-1, 58400

Orbit data source: Space-Track

MALLIGYONG-1, 58400 is a payload satellite owned by Choson (KP) in SSO that was launched on Tue, 21 Nov 2023 UTC via a CHEONLIMA-1 launch vehicle from the Yunsong, Dprk (YUN). Payload-class satellites include a variety of spacecraft equipped with specific instruments for various scientific and technological missions. These include communications satellites like Starlink; space stations such as the ISS; scientific satellites like the Hubble; Earth observation satellites from companies like Planet Labs, Umbra, and HawkEye 360; GPS; miniature CubeSats for education and research; and military/defense satellites.

Loading next visibility...
Identifier
58400, 2023-179A
Orbit
SSO
Last TLE update
7 hours ago
Origin
Manufacturer
Choson
Mission
Operational Defense Imaging
Bus & Motor
TD SATELLITE, Unknown motor
Mass
~200 kg wet, ~200 kg dry
Launch date (UTC)
2023-11-21 (2 years ago)
Launch vehicle
CHEONLIMA-1
Launch site
Yunsong, Dprk (YUN)
Object type
Payload
Rocket body
Debris
Shape & HBR
Box, 1.2 m
Radar Cross Section
1.280 m², Medium (>0.1 m² and < 1m²)

Expand to show TLE details & history

TLE from 7 hours ago
0 MALLIGYONG-1
1 58400U 23179A   25183.94995279  .00002889  00000-0  12687-3 0  9996
2 58400  97.3541  69.4779 0002991 317.4915  42.6089 15.22713188 89634
Epoch: 2025-07-02T22:47Z
TLE epoch observation values (Epoch: 2025-07-02T22:47:55.921Z)
Latitude
-0.00008°
Longitude
166.2712°
Altitude
499.243 km
Speed
7.616 km/s
True Right ascension
04h 37m 54s
True Declination
0° 00' 00"
Sunlit
Object was in daylight at epoch
Visualization orbit readout
Latitude
54.37601°
Longitude
-3.13058°
Altitude
508.687 km
Speed
7.614 km/s
Apparent Right ascension
05h 45m 30s
Apparent Declination
59° 33' 60"
Sunlit
Object is in daylight
Visualization observer readout
Local Sidereal Time
17:24:50
Azimuth
357.349° N
Elevation
9.574°
Doppler factor
1
Orbital elements
Apogee altitude
496.677 km
Perigee altitude
492.565 km
Semi-major axis
6,872.758 km
Eccentricity
0.0003
Inclination
97.3541°
RAAN
69.4779°
Arg. of periapsis
317.4915°
True anomaly
Unknown
Mean anomaly
42.6089°
Eccentric anomaly
Unknown
Mean motion
3.80931 °/min
Orbital period
94.51 mins
BSTAR
0.00012687
Loading maneuver chart data...
Loading SW <> Apogee altitude chart data...
Loading historical data...
Loading historical data...
Loading historical data...
Loading historical data...
Loading historical data...
Loading historical data...
Loading historical data...
Other satellites on launch #179 in the year 2023 (2023-11-21 UTC)

MALLIGYONG-1 Visibility forecast

Observer location: undefined°, undefined°

Span
Click to sort rows by Start time (UTC) header in descending order
Start Az.
Max El. time (UTC)
Max El. Az.
Max El.
End time (UTC)
End Az.
5 mins2025-07-03 05:40:17.528Z350.835° N2025-07-03 05:43:17.528Z265.365° W31.972°2025-07-03 05:45:17.528Z222.526° SW
5 mins2025-07-03 16:17:17.528Z154.34° SSE2025-07-03 16:19:17.528Z102.165° ESE42.141°2025-07-03 16:22:17.528Z355.739° N
5 mins2025-07-04 05:20:17.528Z7.304° NNE2025-07-04 05:22:17.528Z329.62° NNW43.873°2025-07-04 05:25:17.528Z197.863° SSW
|